Historyczne dane pomiarowe

Dodano dane terminowe – wersja testowa.

Dane z okresu 1951-2019

Wersja bazy: 1.34 [2019-03-16, lista zmian], aktualizacja planowana na 2019-04-15

Dane meteo z obszaru Polski uzyskane na podstawie danych udostępnionych przez Instytut Meteorologii i Gospodarki Wodnej – Państwowy Instytut Badawczy.

 

Wybierz Datę:    

       

TemperaturaWilgotnośćWiatrCiśnienieOpadyŚniegCzas trwania zjawisk
 Stacja t tx tn tng RH VA  wxwx mslp ppp RRR   cm mm wxwxwxwxwxwxwx
2019-07-25 20.1 27.5 15.1- 75.5- 2.3 1.3---- 0.0------------
2019-07-24 16.4 22.0 11.4- 97.0- 8.0 0.3---- 0.8------------
2019-07-23 15.9 20.0 12.4- 95.0- 7.3 1.3---- 2.2------------
2019-07-22 18.4 26.0 11.4- 77.5- 5.7 1.7---- 1.0------------
2019-07-21 20.0 27.5 15.9- 82.3- 5.0 1.3---- 3.0------------
2019-07-20 18.1 24.5 12.7- 82.8- 7.0 0.7---- 2.6------------
2019-07-19 17.7 26.5 8.5- 62.5- 3.7 1.3---- 0.0------------
2019-07-18 14.3 25.0 2.8- 79.5- 3.7 0.7---- 0.0------------
2019-07-17 13.4 20.5 4.5- 76.3- 5.3 1.0---- 0.0------------
2019-07-16 13.5 24.5 3.0- 81.5- 4.7 0.7---- 0.0------------
2019-07-15 14.2 21.5 5.5- 79.3- 5.3 1.7---- 0.0------------
2019-07-14 14.8 21.0 10.5- 89.8- 7.3 1.0---- 0.6------------
2019-07-13 14.3 21.0 6.6- 78.5- 6.0 1.7---- 7.2------------
2019-07-12 13.3 22.0 3.5- 79.3- 2.3 1.0---- 0.0------------
2019-07-11 12.2 18.0 6.5- 85.5- 8.0 1.3---- 2.8------------
2019-07-10 11.2 19.0 2.5- 80.5- 7.0 1.7---- 0.2------------
2019-07-09 12.4 19.5 4.5- 70.5- 6.0 1.3---- 1.4------------
2019-07-08 13.8 19.5 8.0- 63.3- 6.3 2.3---- 0.0------------
2019-07-07 18.6 25.5 12.4- 74.8- 6.0 2.3---- 28.1------------
2019-07-06 18.5 26.0 9.0- 62.0- 4.3 1.3---- 0.0------------
2019-07-05 16.1 25.0 5.0- 62.3- 3.7 1.7---- 1.8------------
2019-07-04 15.1 23.5 4.5- 55.0- 2.0 1.7---- 0.0------------
2019-07-03 15.9 22.2 7.0- 60.8- 2.3 1.7---- 0.0------------
2019-07-02 20.9 27.0 15.9- 75.5- 6.0 1.7---- 0.0------------
2019-07-01 24.8 30.4 20.3- 57.0- 1.3 3.7---- 0.3------------
2019-06-30 20.0 28.9 7.5- 58.3- 1.3 1.7---- 0.0------------
2019-06-29 16.3 24.5 7.0- 60.0- 2.7 2.0---- 0.0------------
2019-06-28 16.3 22.5 10.5- 68.5- 5.3 2.3---- 0.0------------
2019-06-27 23.0 28.4 16.8- 61.3- 3.0 2.7---- 0.0------------
2019-06-26 22.9 31.9 13.4- 73.0- 1.0 1.0---- 0.0------------
2019-06-25 22.5 30.4 13.4- 77.3- 2.0 1.7---- 0.0------------
2019-06-24 18.8 21.0 16.8- 91.8- 8.0 2.0---- 0.0------------
2019-06-23 19.5 25.0 16.8- 88.3- 6.3 1.3---- 2.5------------
2019-06-22 19.4 25.5 14.9- 87.8- 7.0 1.7---- 0.5------------
2019-06-21 20.2 26.5 13.4- 86.3- 6.0 0.7---- 9.5------------
2019-06-20 21.8 27.9 15.9- 82.0- 3.3 1.3---- 0.0------------
2019-06-19 20.6 26.5 13.3- 80.8- 5.7 1.3---- 6.8------------
2019-06-18 19.3 24.0 14.9- 79.8- 6.0 2.0---- 0.0------------
2019-06-17 17.2 20.0 15.4- 91.0- 8.0 2.0---- 6.5------------
2019-06-16 21.9 31.4 13.4- 77.3- 4.0 1.3---- 3.9------------
2019-06-15 21.9 31.9 12.4- 67.8- 1.3 1.7---- 0.0------------
2019-06-14 23.1 32.3 12.9- 65.5- 5.3 1.7---- 0.0------------
2019-06-13 22.5 30.4 11.4- 59.0- 2.7 2.0---- 0.0------------
2019-06-12 21.0 29.9 12.4- 70.8- 1.7 1.7---- 0.0------------
2019-06-11 21.9 29.9 12.9- 66.8- 2.3 1.7---- 0.0------------
2019-06-10 20.7 29.9 11.4- 78.8- 2.7 0.7---- 0.0------------
2019-06-09 20.0 28.4 15.4- 78.5- 5.3 2.0---- 0.0------------
2019-06-08 20.1 28.3 10.5- 77.3- 1.3 1.3---- 0.0------------
2019-06-07 19.1 24.5 12.9- 76.0- 4.7 1.7---- 0.0------------
2019-06-06 16.7 22.9 9.0- 80.0- 3.3 1.7---- 0.2------------
2019-06-05 17.0 25.0 10.5- 89.0- 5.7 1.0---- 8.0------------
2019-06-04 18.4 25.0 11.9- 73.8- 3.0 1.3---- 3.0------------
2019-06-03 17.1 25.5 6.5- 70.5- 3.3 2.0---- 0.0------------
2019-06-02 16.8 24.0 8.0- 73.8- 3.3 1.3---- 0.0------------
2019-06-01 15.0 22.5 4.0- 69.0- 3.7 2.0---- 0.0------------
2019-05-31 12.9 17.5 9.2- 90.5- 7.3 1.0---- 0.0------------
2019-05-30 9.8 11.1 9.2- 98.3- 8.0 1.7---- 7.6------------
2019-05-29 14.2 19.0 11.1- 95.5- 7.3 2.3---- 8.0------------
2019-05-28 17.4 20.3 14.8- 80.0- 7.3 2.0---- 3.2------------
2019-05-27 16.1 22.4 7.5- 82.0- 5.3 2.7---- 2.0------------
99.0 ms

 

Źródłem pochodzenia danych jest Instytut Meteorologii i Gospodarki Wodnej – Państwowy Instytut Badawczy. Dane Instytutu Meteorologii i Gospodarki Wodnej – Państwowego Instytutu Badawczego zostały przetworzone.

Dane źródłowe można odnaleźć na stronie https://dane.imgw.pl